Tiempo cada hora Barnasie

Hoy, 6 Marzo, Sábado

Tiempo Temperatura Precipitaciones Viento Presión Humedad
00:00 -7°C° 0 mm 2 mps 711 mmHg 87%
01:00 -8°C° 0 mm 2 mps 711 mmHg 88%
02:00 -8°C° 0 mm 2 mps 711 mmHg 88%
03:00 -8°C° 0 mm 2 mps 711 mmHg 89%
04:00 -8°C° 0 mm 2 mps 711 mmHg 89%
05:00 -8°C° 0 mm 2 mps 712 mmHg 88%
06:00 -7°C° 0 mm 2 mps 712 mmHg 87%
07:00 -7°C° 0 mm 2 mps 713 mmHg 86%
08:00 -6°C° 0 mm 2 mps 713 mmHg 80%
09:00 -5°C° 0 mm 3 mps 714 mmHg 74%
10:00 -4°C° 0 mm 3 mps 714 mmHg 68%
11:00 -2°C° 0.1 mm 3 mps 714 mmHg 65%
12:00 -2°C° 0.1 mm 3 mps 714 mmHg 63%
13:00 -1°C° 0.1 mm 3 mps 714 mmHg 61%
14:00 -1°C° 0 mm 3 mps 714 mmHg 62%
15:00 -1°C° 0 mm 3 mps 713 mmHg 63%
16:00 -2°C° 0 mm 3 mps 713 mmHg 64%
17:00 -3°C° 0 mm 2 mps 713 mmHg 69%
18:00 -4°C° 0 mm 2 mps 713 mmHg 74%
19:00 -5°C° 0 mm 2 mps 713 mmHg 79%
20:00 -5°C° 0 mm 2 mps 713 mmHg 78%
21:00 -5°C° 0 mm 2 mps 713 mmHg 78%
22:00 -6°C° 0 mm 2 mps 712 mmHg 77%
23:00 -6°C° 0 mm 2 mps 712 mmHg 76%

Mañana, 7 Marzo, Domingo

Tiempo Temperatura Precipitaciones Viento Presión Humedad
00:00 -6°C° 0 mm 2 mps 712 mmHg 75%
01:00 -6°C° 0 mm 2 mps 712 mmHg 74%
02:00 -6°C° 0 mm 2 mps 711 mmHg 74%
03:00 -6°C° 0 mm 2 mps 711 mmHg 74%
04:00 -6°C° 0 mm 2 mps 710 mmHg 74%
05:00 -6°C° 0 mm 2 mps 710 mmHg 73%
06:00 -5°C° 0 mm 2 mps 710 mmHg 72%
07:00 -5°C° 0 mm 2 mps 710 mmHg 71%
08:00 -4°C° 0 mm 3 mps 710 mmHg 65%
09:00 -2°C° 0 mm 3 mps 710 mmHg 59%
10:00 0°C° 0 mm 3 mps 709 mmHg 53%
11:00 +1°C° 0 mm 3 mps 709 mmHg 52%
12:00 +2°C° 0 mm 3 mps 709 mmHg 51%
13:00 +3°C° 0 mm 3 mps 709 mmHg 49%
14:00 +2°C° 0 mm 3 mps 708 mmHg 52%
15:00 +2°C° 0 mm 3 mps 707 mmHg 55%
16:00 +2°C° 0 mm 3 mps 706 mmHg 58%
17:00 +1°C° 0 mm 2 mps 706 mmHg 63%
18:00 -2°C° 0 mm 2 mps 706 mmHg 69%
19:00 -4°C° 0 mm 2 mps 706 mmHg 74%
20:00 -2°C° 0 mm 1 mps 705 mmHg 74%
21:00 -2°C° 0 mm 1 mps 705 mmHg 75%
22:00 -2°C° 0 mm 1 mps 705 mmHg 75%
23:00 -2°C° 0 mm 1 mps 705 mmHg 77%

Pasado mañana, 8 Marzo, Lunes

Tiempo Temperatura Precipitaciones Viento Presión Humedad
00:00 -3°C° 0 mm 1 mps 705 mmHg 78%
01:00 -3°C° 0 mm 1 mps 704 mmHg 80%
02:00 -3°C° 0 mm 1 mps 704 mmHg 82%
03:00 -3°C° 0 mm 1 mps 704 mmHg 83%
04:00 -3°C° 0 mm 1 mps 703 mmHg 84%
05:00 -5°C° 0 mm 2 mps 704 mmHg 84%
06:00 -5°C° 0 mm 2 mps 704 mmHg 84%
07:00 -4°C° 0 mm 2 mps 704 mmHg 84%
08:00 -3°C° 0.1 mm 2 mps 704 mmHg 82%
09:00 -3°C° 0.1 mm 2 mps 705 mmHg 81%
10:00 -2°C° 0.1 mm 3 mps 705 mmHg 80%
11:00 -1°C° 0.3 mm 3 mps 705 mmHg 79%
12:00 -1°C° 0.3 mm 3 mps 705 mmHg 78%
13:00 -1°C° 0.3 mm 3 mps 706 mmHg 77%
14:00 -1°C° 0.2 mm 3 mps 706 mmHg 75%
15:00 -2°C° 0.2 mm 3 mps 705 mmHg 73%
16:00 -2°C° 0.2 mm 3 mps 705 mmHg 71%
17:00 -3°C° 0 mm 2 mps 706 mmHg 75%
18:00 -4°C° 0 mm 2 mps 706 mmHg 78%
19:00 -3°C° 0 mm 1 mps 706 mmHg 82%
20:00 -4°C° 0 mm 1 mps 707 mmHg 82%
21:00 -4°C° 0 mm 1 mps 707 mmHg 82%
22:00 -4°C° 0 mm 1 mps 707 mmHg 81%
23:00 -4°C° 0 mm 1 mps 707 mmHg 82%

9 Marzo, Martes

Tiempo Temperatura Precipitaciones Viento Presión Humedad
00:00 -5°C° 0 mm 0 mps 707 mmHg 82%
01:00 -6°C° 0 mm 0 mps 707 mmHg 83%
02:00 -6°C° 0 mm 0 mps 707 mmHg 83%
03:00 -6°C° 0 mm 0 mps 707 mmHg 84%
04:00 -6°C° 0 mm 0 mps 707 mmHg 85%
05:00 -6°C° 0 mm 0 mps 707 mmHg 84%
06:00 -6°C° 0 mm 0 mps 707 mmHg 83%
07:00 -6°C° 0 mm 0 mps 707 mmHg 82%
08:00 -4°C° 0 mm 0 mps 708 mmHg 75%
09:00 -3°C° 0 mm 0 mps 708 mmHg 67%
10:00 -1°C° 0 mm 0 mps 708 mmHg 60%
11:00 -1°C° 0 mm 0 mps 708 mmHg 57%
12:00 +1°C° 0 mm 1 mps 708 mmHg 55%
13:00 +1°C° 0 mm 1 mps 708 mmHg 52%
14:00 +1°C° 0 mm 1 mps 708 mmHg 54%
15:00 0°C° 0 mm 1 mps 707 mmHg 56%
16:00 0°C° 0 mm 1 mps 707 mmHg 58%
17:00 -1°C° 0 mm 1 mps 707 mmHg 65%
18:00 -2°C° 0 mm 1 mps 707 mmHg 72%
19:00 -3°C° 0 mm 1 mps 707 mmHg 79%
20:00 -3°C° 0 mm 1 mps 707 mmHg 79%
21:00 -3°C° 0 mm 1 mps 707 mmHg 79%
22:00 -4°C° 0 mm 0 mps 708 mmHg 79%
23:00 -4°C° 0 mm 0 mps 707 mmHg 79%

10 Marzo, Miércoles

Tiempo Temperatura Precipitaciones Viento Presión Humedad
00:00 -4°C° 0 mm 0 mps 707 mmHg 79%
01:00 -5°C° 0 mm 0 mps 707 mmHg 79%
02:00 -5°C° 0 mm 0 mps 707 mmHg 78%
03:00 -4°C° 0 mm 0 mps 707 mmHg 78%
04:00 -4°C° 0 mm 0 mps 707 mmHg 77%
05:00 -4°C° 0 mm 0 mps 707 mmHg 76%
06:00 -4°C° 0 mm 0 mps 707 mmHg 76%
07:00 -3°C° 0 mm 0 mps 707 mmHg 75%
08:00 -2°C° 0 mm 0 mps 708 mmHg 73%
09:00 -1°C° 0 mm 0 mps 708 mmHg 70%
10:00 +1°C° 0 mm 0 mps 708 mmHg 68%
11:00 +2°C° 0.1 mm 1 mps 708 mmHg 68%
12:00 +3°C° 0.1 mm 1 mps 708 mmHg 67%
13:00 +3°C° 0.1 mm 1 mps 708 mmHg 67%
14:00 +3°C° 0.1 mm 1 mps 708 mmHg 69%
15:00 +3°C° 0.1 mm 1 mps 708 mmHg 72%
16:00 +2°C° 0.1 mm 1 mps 708 mmHg 75%
17:00 +2°C° 0 mm 1 mps 708 mmHg 80%
18:00 +1°C° 0 mm 1 mps 707 mmHg 85%
19:00 0°C° 0 mm 1 mps 707 mmHg 90%
20:00 -1°C° 0 mm 1 mps 707 mmHg 90%
21:00 -1°C° 0 mm 1 mps 707 mmHg 90%
22:00 -3°C° 0 mm 2 mps 707 mmHg 91%
23:00 -3°C° 0 mm 2 mps 707 mmHg 89%

11 Marzo, Jueves

Tiempo Temperatura Precipitaciones Viento Presión Humedad
00:00 -3°C° 0 mm 2 mps 707 mmHg 87%
01:00 -3°C° 0 mm 2 mps 707 mmHg 85%
02:00 -3°C° 0 mm 2 mps 706 mmHg 85%
03:00 -3°C° 0 mm 2 mps 706 mmHg 84%
04:00 -3°C° 0 mm 2 mps 705 mmHg 84%
05:00 -2°C° 0 mm 2 mps 705 mmHg 83%
06:00 -2°C° 0 mm 3 mps 705 mmHg 81%
07:00 -1°C° 0 mm 3 mps 704 mmHg 80%
08:00 0°C° 0 mm 3 mps 704 mmHg 78%
09:00 +1°C° 0 mm 3 mps 704 mmHg 75%
10:00 +1°C° 0 mm 4 mps 704 mmHg 73%
11:00 +3°C° 0 mm 4 mps 704 mmHg 72%
12:00 +4°C° 0 mm 4 mps 704 mmHg 72%
13:00 +3°C° 0 mm 5 mps 703 mmHg 71%
14:00 +4°C° 0 mm 4 mps 703 mmHg 74%
15:00 +4°C° 0 mm 4 mps 702 mmHg 76%
16:00 +3°C° 0 mm 4 mps 702 mmHg 79%
17:00 +3°C° 0 mm 4 mps 702 mmHg 80%
18:00 +1°C° 0 mm 4 mps 701 mmHg 81%
19:00 +1°C° 0 mm 4 mps 701 mmHg 83%
20:00 +1°C° 0 mm 4 mps 701 mmHg 82%
21:00 +1°C° 0 mm 4 mps 701 mmHg 81%
22:00 +1°C° 0 mm 4 mps 701 mmHg 81%
23:00 +1°C° 0.2 mm 4 mps 701 mmHg 83%
Mostrar más

Necesitamos Su Consentimiento

Meteoprog y nuestros Proveedores de Servicios pueden almacenar y acceder a sus datos personales como cookies, identificadores de dispositivo u otras tecnologías similares de su dispositivo y procesar dichos datos para personalizar contenido y anuncios, además de ofrecer funciones de redes sociales y analizar el tráfico.

  • Almacenar y/o acceder a información en su dispositivo

    Se puede almacenar o acceder a cookies, identificadores de dispositivo u otra información de su dispositivo para los fines anteriormente indicados.

  • Anuncios y contenido personalizados, medición de anuncios y contenido, percepciones del público, y desarrollo de productos

    Los anuncios y el contenido pueden personalizarse en base a su perfil. Se pueden añadir más datos para personalizar mejor los anuncios y contenidos. Se puede medir el rendimiento de los anuncios y contenidos. Se puede obtener la percepción sobre el público que ha visto los anuncios y contenidos. Dichos datos pueden usarse para desarrollar o mejorar la experiencia del usuario, sistemas y software.

Al hacer clic en ‘Estoy De Acuerdo’ usted permitirá el uso de las cookies, identificadores de dispositivo, balizas web u otras tecnologías similares indicadas. Su configuración puede cambiarse desde el navegador de su dispositivo.

Para ciertos fines, los intereses legítimos pueden ser considerados por encima del consentimiento. Puede leer más sobre ello en nuestra Política de Privacidad y Cookies.